Wind_Speed
66 66 61 52 54 52 47 46 48 49 43 40 41 45 36 32 34 31 31 31 30 33 37 41 37 42 39 28 34 31 33 26 24 27 28 27 27 31 35 37 36 36 38 40
72 64 51 54 54 56 53 54 54 49 45 40 39 43 39 35 32 32 32 29 25 31 33 33 30 38 36 28 28 30 29 24 24 29 28 26 29 34 36 32 33 36 37 40
68 55 61 62 61 60 55 53 53 46 48 40 44 49 43 31 29 27 34 28 32 32 29 25 28 35 35 29 23 28 24 23 25 26 26 27 32 35 32 31 33 34 36 37
65 61 62 63 61 63 60 55 53 50 51 39 45 52 43 29 23 30 30 29 32 27 27 26 32 32 31 26 24 22 22 24 25 24 25 29 32 31 30 30 32 32 34 32
60 63 64 67 63 64 60 55 53 52 52 53 52 42 28 29 27 23 25 35 28 23 25 31 33 28 28 21 22 22 21 23 21 22 27 30 29 28 29 31 30 31 31 31
60 61 65 65 64 67 63 59 55 52 53 58 48 46 22 25 23 24 32 27 25 29 34 37 31 26 19 20 21 19 21 19 19 23 27 25 26 27 28 28 28 28 32 31
57 60 62 62 66 66 64 63 61 58 58 55 44 49 30 25 19 26 24 21 25 30 28 27 22 21 16 19 18 18 17 17 20 24 22 23 24 26 27 27 25 27 27 24
49 56 57 61 62 64 66 65 64 64 60 54 47 45 38 23 25 27 10 15 22 28 25 14 11 14 18 16 16 16 15 18 22 20 22 21 23 25 27 25 25 21 20 19
35 53 51 59 63 62 60 66 57 59 59 56 52 42 38 35 27 24 19 25 23 23 15 9 11 15 14 15 15 14 15 19 19 19 20 21 21 24 25 23 19 17 17 13
33 45 47 49 59 65 63 55 56 60 59 60 52 45 46 19 18 17 18 15 18 13 8 12 14 13 16 16 14 14 16 17 17 19 17 20 20 21 20 17 14 14 13 7
28 38 39 47 55 59 62 62 59 61 60 56 52 47 27 20 17 23 13 15 13 9 9 12 14 15 18 15 13 14 16 16 17 15 16 16 19 18 14 13 12 12 11 4
25 25 31 45 46 52 63 64 60 57 61 53 51 45 26 18 15 25 18 20 20 9 13 14 15 18 17 13 12 13 13 15 13 14 14 15 15 14 11 10 9 10 9 3
19 21 21 42 40 40 57 67 56 52 49 59 54 43 38 27 21 19 24 27 20 16 16 13 16 14 13 10 11 9 12 13 11 13 13 14 13 12 10 9 12 13 10 5
16 19 26 28 38 48 50 64 62 57 57 56 55 46 36 23 20 23 22 23 16 23 18 14 15 13 10 9 6 9 12 10 10 12 13 12 11 11 11 13 15 13 10 6
13 10 21 27 33 42 49 58 67 63 63 58 50 34 26 14 22 23 24 21 18 23 20 18 17 13 8 5 6 9 11 9 7 12 11 10 9 10 10 11 11 11 11 6
11 8 17 25 29 44 46 59 61 67 67 61 53 38 29 23 23 25 25 20 17 22 20 20 17 11 6 7 5 9 9 5 8 9 7 6 7 7 7 12 9 8 7 3
9 8 3 5 30 39 33 50 53 59 61 57 44 35 27 33 31 28 31 23 27 23 21 20 18 9 6 7 4 8 5 4 5 5 4 6 7 8 6 6 5 5 8 8
3 4 10 3 13 24 30 42 49 44 48 50 45 39 26 35 34 39 36 31 27 25 25 22 13 7 6 8 5 5 4 3 2 2 2 5 6 7 7 6 5 5 7 7
1 2 7 7 10 22 27 46 50 56 51 50 39 42 42 33 38 25 34 32 31 28 24 19 13 7 7 7 5 4 3 2 1 1 2 4 5 7 8 11 10 6 7 8
5 7 4 10 6 23 46 53 45 55 49 50 33 47 51 36 45 37 33 34 37 34 26 19 14 7 7 6 4 2 4 3 3 3 3 4 7 7 10 12 13 15 10 9
10 6 4 14 12 38 45 45 49 38 43 31 46 46 41 45 38 37 35 36 35 33 28 22 13 7 9 6 3 2 5 4 4 5 4 4 5 7 9 11 15 17 12 11
8 5 4 11 26 20 14 49 54 41 34 35 47 45 40 44 39 38 38 35 31 26 24 20 12 7 11 8 3 2 6 5 4 2 3 3 5 6 8 10 13 16 12 11
6 16 11 7 14 9 8 43 43 44 51 51 40 48 47 45 38 42 39 36 29 28 27 17 14 8 12 10 5 1 5 6 5 1 1 4 5 7 9 10 13 18 21 17
3 9 2 13 10 11 16 34 41 31 22 35 52 41 48 49 44 37 36 30 29 24 25 23 13 9 12 12 8 4 5 6 5 2 2 5 7 9 11 11 12 17 24 23
6 6 9 12 9 7 3 22 41 34 23 33 44 43 45 45 46 40 34 34 28 29 23 20 13 12 11 11 9 7 5 7 7 4 3 6 9 11 12 15 16 19 20 19
7 7 12 18 22 8 5 17 24 33 43 34 40 39 39 41 43 38 38 41 36 28 28 19 16 15 13 12 10 9 7 8 7 7 5 7 9 12 15 17 15 16 16 16
Wind_Direction
241 241 241 246 249 254 256 257 255 255 256 258 259 269 263 267 275 277 284 284 292 285 283 286 287 281 287 286 278 281 283 275 275 282 283 289 303 307 310 307 306 306 299 299
241 240 241 244 245 246 245 248 251 254 256 259 264 265 266 259 264 269 273 275 291 277 284 289 291 286 283 277 275 275 277 269 276 278 280 295 304 307 309 305 302 299 299 300
240 239 238 238 239 243 242 245 250 254 257 255 261 262 264 257 264 273 277 288 285 288 298 307 297 278 292 276 275 269 263 269 276 279 289 301 307 308 305 302 301 300 299 299
238 235 238 238 236 240 240 242 246 248 252 252 253 262 256 256 258 266 278 278 273 292 301 291 281 291 281 268 260 254 258 270 276 287 297 303 306 304 302 299 299 301 304 306
236 234 233 234 234 236 236 237 240 243 245 248 251 257 255 259 258 267 273 272 291 299 294 290 284 277 266 261 255 246 260 274 283 291 300 305 303 306 303 303 306 308 308 306
230 232 230 231 232 234 234 234 235 238 241 243 244 255 251 255 265 267 267 286 292 288 281 284 284 283 278 249 237 248 267 278 286 296 302 303 305 306 309 310 311 313 314 317
227 224 228 229 228 231 230 230 232 230 232 244 242 251 255 255 267 272 273 290 290 282 279 285 287 290 234 236 236 257 271 281 293 302 303 304 303 308 314 316 309 311 311 315
225 225 223 225 225 230 227 226 229 235 237 241 239 244 251 264 255 265 290 293 298 282 270 287 279 228 232 231 248 261 272 289 300 303 308 299 305 311 316 315 314 316 316 316
231 222 220 222 223 221 226 224 227 230 233 235 239 243 250 254 262 271 287 294 292 290 281 266 228 237 227 236 257 258 280 295 304 307 304 300 307 314 314 316 321 319 316 318
246 230 220 216 221 223 216 219 214 222 227 231 231 234 244 246 249 275 293 303 300 284 248 227 227 241 227 246 247 269 286 299 307 307 299 303 308 314 316 318 317 322 312 315
252 243 209 217 217 219 218 215 217 216 222 225 230 227 221 222 273 259 257 311 309 263 235 249 251 221 230 244 256 277 288 306 307 300 299 304 311 319 319 314 322 318 315 311
269 270 233 218 210 215 215 210 214 213 215 221 224 221 192 203 252 272 253 278 286 248 248 255 244 221 232 241 266 276 301 304 300 295 300 304 317 315 313 309 333 333 318 309
260 261 244 202 203 206 215 211 205 211 209 214 221 218 193 199 211 261 270 268 269 242 256 247 240 222 227 246 262 286 302 299 293 297 302 310 314 312 295 300 330 334 327 320
266 256 238 204 202 201 206 208 193 197 206 209 217 219 199 229 228 232 250 251 249 235 251 229 216 217 228 248 263 292 298 292 291 296 305 314 314 309 294 299 303 324 328 319
252 261 242 231 202 208 209 195 191 195 204 207 205 187 194 200 228 236 239 245 227 231 248 230 222 221 238 251 257 289 296 278 299 300 314 309 305 299 296 306 295 318 332 279
256 262 247 244 222 204 206 197 189 194 201 203 199 176 179 185 232 229 235 213 217 228 228 227 228 229 238 234 248 287 285 286 305 310 319 334 343 339 315 287 293 310 343 311
253 278 253 297 250 237 205 196 190 190 195 194 167 174 188 210 208 209 224 212 219 224 224 228 228 226 236 217 257 279 274 290 304 323 11 20 15 2 332 305 306 314 334 359
304 339 256 234 241 201 173 187 187 193 192 179 178 185 177 196 201 236 204 211 209 219 221 222 219 219 230 208 266 276 257 271 306 336 40 47 31 23 6 5 347 323 314 340
46 285 187 223 175 180 159 181 178 176 181 194 201 179 186 176 203 196 190 195 190 203 210 212 213 205 208 209 272 261 223 231 122 344 59 59 46 32 33 37 25 6 326 327
72 41 319 224 179 161 167 169 177 182 188 191 190 196 192 177 199 208 194 196 200 201 201 209 211 189 187 204 259 229 192 196 111 105 49 55 62 51 50 48 39 25 17 7
53 57 330 220 160 139 163 172 187 181 190 193 204 198 168 165 187 190 197 203 208 206 200 203 203 174 185 188 219 188 177 176 127 103 82 71 74 67 56 48 40 40 45 57
33 66 350 194 144 130 173 165 189 203 190 193 192 185 164 167 178 185 192 198 202 199 212 218 189 179 192 174 175 162 173 168 149 137 99 76 69 71 61 54 46 43 55 92
98 132 90 158 199 189 156 179 155 168 191 208 193 180 177 172 171 187 191 197 193 197 196 230 182 179 191 182 178 167 159 170 167 187 63 83 95 96 88 76 63 57 80 91
199 197 1 122 178 229 103 159 180 178 170 185 190 191 186 186 185 181 187 201 198 192 202 201 176 188 186 194 190 215 150 158 173 191 104 101 105 106 101 94 84 82 88 91
210 252 220 209 141 82 258 168 197 188 163 185 195 207 183 193 200 203 205 209 211 196 202 171 182 185 184 192 189 202 173 146 159 173 142 123 114 111 108 102 95 90 90 92
276 253 240 250 241 230 199 200 159 190 201 187 196 207 208 201 206 201 203 211 214 199 195 196 187 182 188 187 182 191 178 151 153 165 158 150 131 121 119 113 102 93 92 90
Height
5706 5709 5721 5740 5744 5748 5755 5756 5759 5764 5772 5775 5774 5775 5783 5787 5785 5788 5792 5792 5793 5791 5791 5791 5790 5788 5789 5789 5786 5786 5786 5786 5785 5784 5782 5780 5777 5775 5772 5767 5763 5760 5758 5754
5688 5704 5727 5727 5732 5733 5740 5742 5745 5754 5762 5767 5770 5765 5774 5777 5779 5783 5785 5786 5787 5784 5785 5784 5783 5780 5780 5781 5780 5778 5778 5779 5779 5778 5776 5775 5772 5769 5765 5761 5757 5753 5750 5745
5676 5707 5705 5710 5715 5718 5727 5733 5740 5747 5752 5759 5758 5752 5761 5771 5773 5776 5773 5778 5776 5775 5777 5778 5775 5771 5772 5772 5773 5772 5772 5773 5772 5771 5770 5768 5766 5762 5758 5754 5750 5747 5743 5738
5667 5685 5689 5696 5704 5707 5715 5727 5732 5737 5741 5747 5749 5740 5752 5763 5768 5766 5769 5769 5767 5770 5771 5770 5766 5765 5764 5766 5767 5767 5768 5767 5766 5765 5765 5763 5759 5756 5752 5748 5745 5741 5736 5732
5667 5669 5673 5677 5691 5694 5708 5716 5720 5727 5730 5733 5734 5736 5752 5756 5758 5762 5763 5759 5763 5764 5763 5761 5760 5758 5759 5761 5762 5763 5763 5762 5761 5761 5759 5757 5752 5750 5745 5741 5737 5734 5730 5727
5644 5648 5652 5667 5677 5679 5694 5704 5708 5714 5718 5713 5731 5734 5743 5749 5754 5755 5751 5756 5757 5757 5755 5752 5753 5755 5756 5755 5756 5757 5758 5757 5757 5756 5754 5750 5746 5744 5740 5735 5732 5728 5723 5719
5620 5626 5641 5653 5663 5666 5678 5688 5694 5698 5701 5710 5728 5725 5737 5745 5750 5746 5747 5750 5750 5748 5747 5745 5747 5749 5749 5751 5752 5752 5753 5753 5752 5752 5748 5744 5742 5739 5735 5731 5728 5726 5720 5716
5602 5615 5630 5640 5648 5654 5663 5672 5681 5686 5694 5707 5717 5717 5726 5739 5741 5740 5741 5744 5743 5741 5738 5741 5743 5744 5746 5748 5748 5749 5750 5749 5748 5746 5743 5741 5738 5735 5730 5727 5724 5720 5717 5714
5590 5602 5612 5621 5632 5639 5653 5656 5682 5675 5686 5695 5705 5714 5720 5728 5734 5732 5734 5737 5737 5735 5737 5736 5738 5740 5742 5744 5745 5746 5746 5745 5744 5741 5738 5736 5734 5731 5726 5723 5720 5718 5715 5714
5584 5592 5600 5612 5617 5625 5631 5659 5657 5666 5674 5679 5695 5705 5710 5724 5724 5726 5729 5729 5730 5732 5733 5733 5734 5737 5739 5740 5742 5743 5742 5741 5739 5736 5734 5733 5730 5727 5725 5721 5719 5717 5715 5713
5580 5581 5598 5595 5600 5615 5628 5639 5643 5657 5664 5673 5687 5696 5712 5714 5718 5720 5726 5724 5727 5731 5730 5730 5732 5734 5736 5738 5739 5739 5738 5736 5735 5732 5732 5730 5727 5724 5722 5720 5718 5717 5714 5712
5575 5575 5576 5583 5595 5602 5607 5623 5637 5642 5658 5667 5679 5690 5707 5709 5712 5712 5719 5721 5723 5728 5728 5728 5730 5731 5733 5735 5736 5736 5734 5732 5731 5729 5728 5726 5724 5722 5720 5719 5718 5716 5714 5711
5568 5568 5566 5575 5586 5597 5601 5614 5630 5640 5651 5659 5670 5687 5696 5700 5707 5711 5713 5714 5719 5725 5726 5726 5728 5729 5731 5732 5732 5731 5730 5728 5728 5727 5725 5723 5721 5720 5719 5718 5718 5715 5713 5711
5561 5561 5561 5567 5576 5579 5589 5600 5611 5625 5636 5652 5661 5680 5694 5696 5703 5706 5708 5711 5716 5720 5723 5723 5725 5726 5728 5728 5728 5728 5727 5726 5725 5724 5722 5721 5719 5718 5717 5717 5715 5714 5712 5710
5559 5559 5560 5564 5571 5574 5584 5592 5604 5613 5628 5640 5661 5677 5685 5690 5696 5700 5705 5709 5713 5715 5719 5721 5723 5723 5725 5725 5725 5725 5724 5724 5723 5721 5720 5718 5716 5716 5715 5715 5714 5712 5710 5708
5556 5557 5559 5562 5566 5571 5578 5588 5596 5607 5622 5634 5653 5670 5678 5685 5688 5696 5701 5706 5710 5712 5715 5717 5719 5721 5722 5723 5723 5723 5722 5721 5721 5719 5718 5716 5715 5713 5712 5713 5712 5711 5709 5707
5555 5556 5559 5559 5563 5565 5573 5588 5598 5610 5621 5636 5652 5665 5672 5677 5681 5689 5694 5701 5706 5708 5712 5715 5717 5719 5720 5721 5721 5721 5720 5720 5720 5718 5717 5715 5714 5713 5713 5712 5711 5710 5708 5706
5554 5556 5557 5557 5561 5569 5578 5586 5600 5612 5626 5639 5640 5654 5655 5669 5679 5679 5685 5693 5701 5705 5708 5711 5714 5717 5718 5720 5720 5720 5719 5720 5719 5717 5717 5716 5716 5714 5714 5712 5710 5709 5707 5706
5554 5554 5556 5558 5563 5570 5575 5586 5595 5606 5616 5621 5627 5650 5646 5655 5671 5675 5682 5688 5694 5701 5705 5708 5712 5714 5717 5718 5718 5718 5719 5719 5719 5718 5718 5717 5717 5716 5715 5712 5710 5708 5706 5705
5554 5553 5556 5558 5563 5569 5578 5585 5591 5600 5610 5617 5625 5630 5645 5657 5663 5669 5679 5683 5687 5694 5700 5706 5709 5712 5715 5717 5718 5718 5719 5719 5719 5719 5719 5718 5718 5717 5716 5714 5712 5709 5705 5703
5554 5556 5557 5559 5559 5567 5579 5591 5596 5604 5614 5612 5621 5634 5638 5650 5661 5667 5674 5679 5685 5693 5698 5702 5708 5711 5713 5716 5718 5718 5719 5719 5719 5720 5720 5720 5719 5718 5718 5716 5714 5710 5707 5706
5556 5559 5562 5565 5568 5573 5572 5584 5597 5598 5604 5604 5616 5628 5634 5646 5656 5664 5670 5676 5685 5694 5698 5703 5706 5710 5713 5715 5718 5718 5719 5719 5720 5721 5722 5721 5720 5719 5720 5719 5717 5714 5710 5710
5559 5562 5565 5568 5573 5574 5574 5576 5576 5595 5601 5604 5616 5627 5634 5644 5653 5662 5667 5673 5685 5690 5696 5702 5705 5708 5712 5714 5717 5719 5719 5720 5721 5722 5722 5722 5722 5722 5722 5722 5720 5718 5713 5715
5561 5562 5566 5567 5569 5569 5571 5581 5586 5589 5588 5603 5615 5622 5631 5642 5650 5659 5666 5671 5682 5690 5695 5700 5701 5707 5710 5713 5716 5719 5719 5720 5722 5723 5723 5723 5723 5724 5724 5724 5724 5724 5722 5721
5563 5564 5562 5563 5566 5568 5569 5572 5578 5587 5593 5602 5612 5620 5628 5640 5649 5656 5665 5672 5676 5684 5689 5690 5700 5705 5708 5712 5715 5718 5719 5720 5722 5723 5724 5725 5726 5727 5727 5728 5728 5728 5727 5728
5565 5566 5567 5566 5565 5567 5570 5573 5580 5586 5595 5603 5610 5619 5628 5636 5645 5655 5663 5669 5676 5682 5688 5692 5698 5703 5707 5711 5714 5716 5718 5720 5722 5724 5726 5727 5728 5730 5731 5732 5733 5733 5733 5734